Hourly Weather Rudnik

Today, 22 April, Thursday

Time Temperature Precipitation Wind Pressure Humidity
00:00 +8°C° 0 mm 3 mps 738 mmHg 84%
01:00 +8°C° 0 mm 3 mps 738 mmHg 84%
02:00 +7°C° 0 mm 4 mps 738 mmHg 84%
03:00 +6°C° 0 mm 4 mps 738 mmHg 86%
04:00 +6°C° 0 mm 4 mps 738 mmHg 89%
05:00 +5°C° 0 mm 4 mps 738 mmHg 91%
06:00 +6°C° 0 mm 4 mps 738 mmHg 87%
07:00 +7°C° 0 mm 5 mps 738 mmHg 84%
08:00 +8°C° 0 mm 5 mps 739 mmHg 81%
09:00 +8°C° 0.1 mm 5 mps 739 mmHg 81%
10:00 +8°C° 0.1 mm 5 mps 739 mmHg 81%
11:00 +7°C° 0.1 mm 5 mps 740 mmHg 80%
12:00 +6°C° 0.1 mm 5 mps 740 mmHg 84%
13:00 +5°C° 0.1 mm 5 mps 740 mmHg 88%
14:00 +3°C° 0.1 mm 4 mps 741 mmHg 91%
15:00 +4°C° 0 mm 4 mps 741 mmHg 81%
16:00 +6°C° 0 mm 4 mps 740 mmHg 71%
17:00 +7°C° 0 mm 4 mps 740 mmHg 61%
18:00 +6°C° 0 mm 4 mps 741 mmHg 62%
19:00 +5°C° 0 mm 3 mps 741 mmHg 64%
20:00 +5°C° 0 mm 2 mps 741 mmHg 66%
21:00 +4°C° 0 mm 2 mps 741 mmHg 69%
22:00 +3°C° 0 mm 2 mps 741 mmHg 71%
23:00 +3°C° 0 mm 2 mps 742 mmHg 73%

Tomorrow, 23 April, Friday

Time Temperature Precipitation Wind Pressure Humidity
00:00 +1°C° 0 mm 3 mps 742 mmHg 77%
01:00 +1°C° 0 mm 3 mps 742 mmHg 80%
02:00 0°C° 0 mm 3 mps 742 mmHg 83%
03:00 0°C° 0 mm 3 mps 742 mmHg 86%
04:00 -1°C° 0 mm 3 mps 742 mmHg 89%
05:00 -1°C° 0 mm 3 mps 742 mmHg 91%
06:00 -1°C° 0 mm 4 mps 743 mmHg 81%
07:00 +1°C° 0 mm 5 mps 743 mmHg 71%
08:00 +2°C° 0 mm 5 mps 743 mmHg 61%
09:00 +3°C° 0.1 mm 6 mps 743 mmHg 57%
10:00 +4°C° 0.1 mm 6 mps 743 mmHg 53%
11:00 +5°C° 0.1 mm 6 mps 743 mmHg 50%
12:00 +7°C° 0.2 mm 6 mps 743 mmHg 49%
13:00 +7°C° 0.2 mm 6 mps 743 mmHg 48%
14:00 +7°C° 0.2 mm 6 mps 743 mmHg 47%
15:00 +7°C° 0.2 mm 6 mps 743 mmHg 50%
16:00 +7°C° 0.2 mm 5 mps 743 mmHg 53%
17:00 +6°C° 0.2 mm 5 mps 743 mmHg 57%
18:00 +5°C° 0.1 mm 5 mps 743 mmHg 63%
19:00 +3°C° 0.1 mm 5 mps 743 mmHg 70%
20:00 +2°C° 0.1 mm 5 mps 743 mmHg 76%
21:00 +1°C° 0.2 mm 5 mps 743 mmHg 80%
22:00 0°C° 0.2 mm 4 mps 744 mmHg 84%
23:00 -1°C° 0.2 mm 4 mps 744 mmHg 88%

Day after tomorrow, 24 April, Saturday

Time Temperature Precipitation Wind Pressure Humidity
00:00 -2°C° 0 mm 4 mps 744 mmHg 89%
01:00 -2°C° 0 mm 4 mps 744 mmHg 91%
02:00 -3°C° 0 mm 4 mps 745 mmHg 92%
03:00 -3°C° 0 mm 4 mps 745 mmHg 90%
04:00 -3°C° 0 mm 4 mps 745 mmHg 89%
05:00 -2°C° 0 mm 3 mps 745 mmHg 87%
06:00 -2°C° 0 mm 4 mps 745 mmHg 81%
07:00 0°C° 0 mm 5 mps 745 mmHg 74%
08:00 +1°C° 0 mm 5 mps 746 mmHg 67%
09:00 +3°C° 0 mm 6 mps 746 mmHg 59%
10:00 +4°C° 0 mm 6 mps 746 mmHg 50%
11:00 +5°C° 0 mm 6 mps 746 mmHg 42%
12:00 +7°C° 0 mm 6 mps 745 mmHg 40%
13:00 +7°C° 0 mm 6 mps 745 mmHg 38%
14:00 +8°C° 0 mm 6 mps 745 mmHg 36%
15:00 +8°C° 0 mm 5 mps 745 mmHg 39%
16:00 +8°C° 0 mm 5 mps 744 mmHg 43%
17:00 +8°C° 0 mm 5 mps 744 mmHg 47%
18:00 +6°C° 0 mm 4 mps 744 mmHg 52%
19:00 +5°C° 0 mm 3 mps 744 mmHg 58%
20:00 +5°C° 0 mm 2 mps 744 mmHg 64%
21:00 +4°C° 0.3 mm 2 mps 744 mmHg 73%
22:00 +3°C° 0.3 mm 2 mps 744 mmHg 82%
23:00 +3°C° 0.3 mm 2 mps 744 mmHg 91%

25 April, Sunday

Time Temperature Precipitation Wind Pressure Humidity
00:00 +2°C° 0 mm 2 mps 744 mmHg 92%
01:00 +2°C° 0 mm 2 mps 744 mmHg 93%
02:00 +1°C° 0 mm 3 mps 744 mmHg 94%
03:00 +1°C° 0.2 mm 3 mps 744 mmHg 93%
04:00 0°C° 0.2 mm 3 mps 744 mmHg 93%
05:00 -1°C° 0.2 mm 4 mps 744 mmHg 92%
06:00 -1°C° 0.1 mm 4 mps 745 mmHg 85%
07:00 0°C° 0.1 mm 4 mps 745 mmHg 77%
08:00 0°C° 0.1 mm 5 mps 745 mmHg 69%
09:00 +1°C° 0 mm 5 mps 745 mmHg 65%
10:00 +2°C° 0 mm 5 mps 746 mmHg 60%
11:00 +2°C° 0 mm 5 mps 746 mmHg 55%
12:00 +3°C° 0.1 mm 5 mps 746 mmHg 52%
13:00 +5°C° 0.1 mm 5 mps 745 mmHg 50%
14:00 +5°C° 0.1 mm 5 mps 745 mmHg 47%
15:00 +5°C° 0.1 mm 5 mps 745 mmHg 49%
16:00 +5°C° 0.1 mm 5 mps 745 mmHg 51%
17:00 +5°C° 0.1 mm 5 mps 745 mmHg 53%
18:00 +4°C° 0.1 mm 4 mps 745 mmHg 60%
19:00 +3°C° 0.1 mm 4 mps 744 mmHg 67%
20:00 +2°C° 0.1 mm 3 mps 744 mmHg 73%
21:00 +1°C° 0 mm 3 mps 744 mmHg 76%
22:00 +1°C° 0 mm 3 mps 744 mmHg 78%
23:00 0°C° 0 mm 3 mps 745 mmHg 80%

26 April, Monday

Time Temperature Precipitation Wind Pressure Humidity
00:00 -1°C° 0 mm 3 mps 744 mmHg 83%
01:00 -1°C° 0 mm 3 mps 744 mmHg 85%
02:00 -2°C° 0 mm 3 mps 744 mmHg 88%
03:00 -2°C° 0 mm 2 mps 744 mmHg 89%
04:00 -3°C° 0 mm 2 mps 745 mmHg 89%
05:00 -3°C° 0 mm 2 mps 745 mmHg 90%
06:00 -1°C° 0 mm 2 mps 745 mmHg 79%
07:00 +1°C° 0 mm 2 mps 745 mmHg 68%
08:00 +2°C° 0 mm 3 mps 745 mmHg 57%
09:00 +3°C° 0 mm 3 mps 745 mmHg 51%
10:00 +4°C° 0 mm 3 mps 745 mmHg 46%
11:00 +6°C° 0 mm 4 mps 744 mmHg 40%
12:00 +6°C° 0.1 mm 4 mps 744 mmHg 42%
13:00 +7°C° 0.1 mm 5 mps 744 mmHg 44%
14:00 +7°C° 0.1 mm 5 mps 743 mmHg 46%
15:00 +7°C° 0.1 mm 5 mps 743 mmHg 46%
16:00 +7°C° 0.1 mm 5 mps 743 mmHg 47%
17:00 +7°C° 0.1 mm 5 mps 743 mmHg 47%
18:00 +6°C° 0 mm 4 mps 743 mmHg 53%
19:00 +5°C° 0 mm 2 mps 743 mmHg 58%
20:00 +4°C° 0 mm 1 mps 743 mmHg 64%
21:00 +4°C° 0 mm 1 mps 743 mmHg 64%
22:00 +3°C° 0 mm 1 mps 743 mmHg 64%
23:00 +3°C° 0 mm 1 mps 743 mmHg 64%

27 April, Tuesday

Time Temperature Precipitation Wind Pressure Humidity
00:00 +3°C° 0 mm 1 mps 743 mmHg 65%
01:00 +1°C° 0 mm 2 mps 742 mmHg 66%
02:00 +1°C° 0 mm 2 mps 742 mmHg 67%
03:00 +1°C° 0 mm 2 mps 742 mmHg 69%
04:00 +1°C° 0 mm 2 mps 742 mmHg 72%
05:00 -1°C° 0 mm 2 mps 741 mmHg 74%
06:00 +1°C° 0 mm 3 mps 741 mmHg 70%
07:00 +3°C° 0 mm 3 mps 741 mmHg 66%
08:00 +5°C° 0 mm 4 mps 740 mmHg 63%
09:00 +6°C° 0 mm 4 mps 740 mmHg 59%
10:00 +8°C° 0 mm 5 mps 739 mmHg 55%
11:00 +9°C° 0 mm 5 mps 739 mmHg 52%
12:00 +10°C° 0 mm 6 mps 738 mmHg 50%
13:00 +11°C° 0 mm 6 mps 737 mmHg 48%
14:00 +13°C° 0 mm 6 mps 736 mmHg 46%
15:00 +11°C° 0 mm 6 mps 736 mmHg 49%
16:00 +11°C° 0 mm 6 mps 735 mmHg 52%
17:00 +12°C° 0 mm 5 mps 735 mmHg 55%
18:00 +10°C° 0.3 mm 5 mps 734 mmHg 65%
19:00 +8°C° 0.3 mm 5 mps 734 mmHg 75%
20:00 +6°C° 0.3 mm 5 mps 733 mmHg 85%
21:00 +7°C° 0.4 mm 5 mps 732 mmHg 88%
22:00 +7°C° 0.4 mm 4 mps 732 mmHg 91%
23:00 +7°C° 0.4 mm 4 mps 731 mmHg 94%
Show more